Regional Weather Roundup
Issued by NWS

Home | Current Version | Previous Version | Text Only | Print | Product List | Glossary Off
Versions: 1 2 3 4 5 6 7 8 9 10 11 12 13 14 15 16 17 18 19 20 21 22 23 24 25 26 27 28 29 30 31 32 33 34 35 36 37 38 39 40 41 42 43 44 45 46 47 48 49 50

000
ASUS43 KFSD 222202
RWRSD

WEATHER ROUNDUP FOR SOUTH DAKOTA
NATIONAL WEATHER SERVICE SIOUX FALLS SD
500 PM CDT FRI MAY 22 2015

NOTE: "FAIR" INDICATES FEW OR NO CLOUDS BELOW 12,000 FEET WITH NO
SIGNIFICANT WEATHER AND/OR OBSTRUCTIONS TO VISIBILITY.


SDZ001>005-009-010-012>017-222300-
NORTHWEST AND NORTH CENTRAL SOUTH DAKOTA

CITY           SKY/WX    TMP DP  RH WIND       PRES   REMARKS
BUFFALO          N/A     66  43  43 S22G32    29.98F
FAITH            N/A     68  36  30 SE22G30   30.07
MOBRIDGE       PTSUNNY   73  41  31 SE16      30.07F
$$

SDZ012>016-024>037-041>051-057-063-072>074-222300-
SOUTHWEST AND SOUTH CENTRAL SOUTH DAKOTA

CITY           SKY/WX    TMP DP  RH WIND       PRES   REMARKS
RAPID CTY ARPT CLOUDY    60  41  49 S16       30.07S
PIERRE         CLOUDY    69  36  29 SE21G29   30.09F
CUSTER         CLOUDY    47  37  68 SE9       30.09S
ELLSWORTH AFB  CLOUDY    61  42  49 SE16      30.06S
PHILIP         CLOUDY    65  41  41 SE18G25   30.08F
PINE RIDGE     CLOUDY    53  41  63 SE16      30.09F
WINNER         CLOUDY    63  42  46 S21       30.15S
$$

SDZ004>011-016>023-039-040-222300-
NORTHEAST SOUTH DAKOTA

CITY           SKY/WX    TMP DP  RH WIND       PRES   REMARKS
ABERDEEN       MOSUNNY   73  40  30 SE8       30.11F
WATERTOWN      MOSUNNY   73  34  23 VRB5      30.14F
BROOKINGS      CLOUDY    73  34  23 S7        30.15F
$$

SDZ017-020-022-023-036>040-048>070-222300-
SOUTHEAST SOUTH DAKOTA

CITY           SKY/WX    TMP DP  RH WIND       PRES   REMARKS
SIOUX FALLS    CLOUDY    70  38  31 S14       30.15F
HURON          CLOUDY    73  38  27 S10G20    30.12F
MITCHELL       CLOUDY    71  40  32 S13       30.14F
YANKTON        CLOUDY    66  39  37 S20       30.17S
$$

ABBREVIATIONS USED IN REMARKS
   TC - TEMPERATURE IN CELSIUS
  WCI - WIND CHILL INDEX
   HX - HEAT INDEX
  VSB - VISIBILITY



USA.gov is the U.S. government's official web portal to all federal, state and local government web resources and services.